This demonstration page uses our WeatherBlox Daily Observations layout. Learn more.

Left ArrowRight Arrow

Hourly Observations for October 5, 2022

Temp ( °F °C ) Dew Point ( °F °C ) Humidity (%) Winds ( mph kmh ) Pressure ( in mb ) Visibility ( mi km ) Precip ( " mm )
12:54 am 00:54 Clear 52 11.1 49 9.4 89 89 NNE 3 6 30.06 1018 10 16 0.00 0.00
1:54 am 01:54 Mostly Cloudy 57 13.9 51 10.6 80 80 Calm 30.06 1018 10 16 0.00 0.00
2:54 am 02:54 Partly Cloudy 56 13.3 52 11.1 87 87 Calm 30.06 1018 10 16 0.01 0.13
3:54 am 03:54 Clear 51 10.6 48 8.9 89 89 Calm 30.06 1018 10 16 0.00 0.00
4:54 am 04:54 Partly Cloudy 54 12.2 50 10 86 86 Calm 30.06 1018 10 16 0.00 0.00
5:54 am 05:54 Clear 49 9.4 45 7.2 86 86 NNW 3 6 30.08 1019 10 16 0.00 0.00
6:54 am 06:54 Clear 55 12.8 51 10.6 86 86 WNW 5 7 30.08 1019 10 16 0.00 0.00
7:54 am 07:54 Sunny 54 12.2 51 10.6 90 90 NW 6 9 30.10 1019 7 11 0.00 0.00
8:54 am 08:54 Sunny 59 15 54 12.2 83 83 NNW 8 13 30.11 1020 7 11 0.00 0.00
9:54 am 09:54 Sunny 63 17.2 53 11.7 70 70 NW 9 15 30.11 1020 10 16 0.00 0.00
10:54 am 10:54 Sunny 67 19.4 53 11.7 61 61 NNW 14 22 30.11 1020 10 16 0.00 0.00
11:54 am 11:54 Sunny 71 21.7 52 11.1 51 51 NNW 15 24 30.11 1020 10 16 0.00 0.00
12:54 pm 12:54 Mostly Sunny 73 22.8 49 9.4 42 42 NNW 10 17 30.09 1019 10 16 0.00 0.00
1:54 pm 13:54 Mostly Cloudy 74 23.3 50 10 43 43 NW 14 22 30.08 1019 10 16 0.00 0.00
2:54 pm 14:54 Cloudy 76 24.4 50 10 40 40 N 10 17 30.06 1018 10 16 0.00 0.00
3:54 pm 15:54 Partly Cloudy 75 23.9 50 10 41 41 NNW 15 24 30.06 1018 10 16 0.00 0.00
4:54 pm 16:54 Partly Cloudy 77 25 50 10 39 39 NNW 13 20 30.05 1018 10 16 0.00 0.00
5:54 pm 17:54 Sunny 75 23.9 50 10 41 41 NNW 12 19 30.07 1018 10 16 0.00 0.00
6:54 pm 18:54 Sunny 72 22.2 51 10.6 48 48 NNW 7 11 30.07 1018 10 16 0.00 0.00
7:54 pm 19:54 Clear 62 16.7 49 9.4 62 62 NNW 6 9 30.10 1019 10 16 0.00 0.00
8:54 pm 20:54 Clear 62 16.7 50 10 65 65 Calm 30.10 1019 10 16 0.00 0.00
9:54 pm 21:54 Clear 58 14.4 49 9.4 72 72 Calm 30.11 1020 10 16 0.00 0.00
10:54 pm 22:54 Clear 55 12.8 49 9.4 80 80 Calm 30.12 1020 10 16 0.00 0.00
11:54 pm 23:54 Clear 53 11.7 48 8.9 83 83 Calm 30.12 1020 10 16 0.00 0.00

Powered by AerisWeather